[[{"header":{"parameterUnit":"m.s-1","parameterCategory":1,"la1":30.2991,"la2":30.254,"lo1":-89.0895,"lo2":-89.0444,"dy":0.0017,"dx":0.0017,"nx":28,"ny":28,"refTime":"2025-03-03T09:00:00:Z","depth":0,"parameterNumber":2,"parameterNumberName":"U-component_of_WINDS"},"data":[0,0,0,0,0,0,0,0,0,0,0,0,0,0,0,0,0,0,0,0,0,0,0,0,0,0,0,0,0,0,0,0,0,0,0,0,0,0,0,0,0,0,0,0,0,0,0,0,0,0,0,0,0,0,0,0,0,0,3.8662,3.8658,0,3.8309,3.8305,3.8301,3.8111,3.8111,3.8111,3.811,3.7733,3.7723,3.7714,0,0,0,0,0,0,0,0,0,0,0,0,0,3.9156,3.9148,3.8663,3.8658,3.8654,3.831,3.8305,3.83,3.8111,3.8111,3.8111,3.811,3.7736,3.7724,3.7713,0,0,0,0,0,0,0,0,0,0,0,0,0,3.8886,3.9145,3.8663,3.8518,3.8502,3.8311,3.8305,3.8299,3.8112,3.8111,3.811,3.811,3.774,3.7725,3.7711,3.7632,0,0,3.7666,3.766,0,0,0,0,0,0,0,0,3.8901,3.8868,3.8544,3.8528,3.8509,3.8254,3.834,3.8075,3.8112,3.8259,3.811,3.811,3.7905,3.7877,3.7812,3.7614,3.7598,3.7665,3.7656,3.765,3.7646,0,0,0,0,0,0,0,3.892,3.8882,3.8522,3.854,3.8518,3.8465,3.8426,3.8289,3.8089,3.8246,3.8232,3.8194,3.7896,3.7826,3.7801,3.7592,3.7666,3.7653,3.7644,3.7638,3.7307,3.7307,0,0,0,0,0,0,3.8965,3.8899,3.8533,3.8512,3.8709,3.8457,3.8413,3.8336,3.809,3.8053,3.8194,3.8186,3.7851,3.7819,3.7787,3.7675,3.765,3.7637,3.7628,3.7307,3.7307,3.7307,0,0,0,0,0,0,3.8976,3.8934,3.8548,3.8701,3.8648,3.8449,3.8364,3.833,3.826,3.8051,3.8013,3.8161,3.785,3.7808,3.7672,3.766,3.763,3.7617,3.7307,3.7307,3.7307,3.7454,0,0,0,0,0,0,3.8991,3.8939,3.8911,3.8702,3.8641,3.8444,3.8363,3.8323,3.8237,3.8223,3.801,3.7974,3.7846,3.7695,3.7658,3.7639,3.7605,3.7307,3.7307,3.7307,3.7449,3.7459,3.7467,0,0,0,0,0,3.9009,3.8964,3.8911,3.8868,3.8603,3.8444,3.8408,3.8267,3.8238,3.8204,3.807,3.7981,3.7668,3.7683,3.7639,3.7616,3.7307,3.7307,3.7307,3.7445,3.7457,3.7467,0,0,0,0,0,0,3.9171,3.8934,3.8872,3.876,3.8624,3.8413,3.8367,3.8284,3.815,3.8141,3.7966,3.7919,3.7799,3.7693,3.7714,3.7524,3.7478,3.7469,3.7598,3.7607,3.7616,3.7643,3.7593,0,0,0,0,0,3.9196,3.9092,3.8887,3.8807,3.8743,3.8568,3.8493,3.8396,3.8246,3.8186,3.8041,3.7895,3.7762,3.7679,3.7546,3.7434,3.7381,3.7396,3.7405,3.7413,3.7407,3.7335,3.7338,3.7307,3.7307,3.7307,0,0,3.9241,3.9098,3.9043,3.8836,3.872,3.8611,3.852,3.8409,3.8325,3.8167,3.8031,3.792,3.7744,3.7619,3.7556,3.7527,3.7404,3.7413,3.7422,3.741,3.7335,3.7338,3.7341,3.7306,3.7306,3.7307,0,0,3.9269,3.9153,3.9072,3.8958,3.8785,3.8668,3.8649,3.8449,3.8371,3.8233,3.8111,3.8005,3.7783,3.7662,3.7572,3.7553,3.7463,3.7514,3.7559,3.7492,3.7494,3.7495,3.7485,3.7484,3.7508,3.7509,3.7509,0,3.9346,3.9183,3.9039,3.8936,3.8846,3.8704,3.8617,3.8511,3.8301,3.824,3.8212,3.7929,3.78,3.7643,3.7639,3.7571,3.7539,3.7536,3.7507,3.7506,3.7505,3.7493,3.749,3.7516,3.7515,3.7514,3.7513,0,3.9284,3.9173,3.9127,3.8934,3.8839,3.8744,3.8581,3.8501,3.8412,3.8297,3.8154,3.7996,3.7827,3.7783,3.7693,3.7611,3.7598,3.7541,3.749,3.7518,3.7503,3.7497,3.7526,3.7523,3.7521,3.7519,0,0,3.9403,3.9133,3.9118,3.9028,3.8825,3.8733,3.8629,3.847,3.8403,3.8262,3.8167,3.7982,3.7927,3.7825,3.7719,3.766,3.7651,3.7608,3.7601,3.7619,3.7546,3.759,3.7587,3.7592,3.7591,3.7589,3.756,0,3.94,3.9214,3.9081,3.8944,3.8836,3.8698,3.8607,3.847,3.8359,3.8246,3.8121,3.7992,3.7931,3.7868,3.7804,3.7667,3.7633,3.7667,3.7496,3.7492,3.7543,3.758,3.7625,3.7605,3.7554,3.7553,3.7552,0,3.9371,3.924,3.9094,3.8902,3.8851,3.8773,3.8614,3.8511,3.835,3.8273,3.8159,3.8052,3.793,3.7892,3.7719,3.7745,3.7666,3.7588,3.7584,3.756,3.7522,3.7554,3.7596,3.7592,3.7542,3.7543,3.7544,0,3.9469,3.9256,3.914,3.9067,3.884,3.8788,3.869,3.8529,3.8441,3.83,3.824,3.8086,3.8,3.788,3.7732,3.7719,3.7572,3.7523,3.7499,3.7503,3.7473,3.7476,3.75,3.7428,3.7428,3.7428,3.7428,0,3.9478,3.9393,3.9181,3.911,3.9008,3.8854,3.8756,3.8645,3.8504,3.8403,3.8273,3.8181,3.7992,3.7875,3.7757,3.7629,3.7592,3.7522,3.7491,3.7532,3.7541,3.7476,3.7472,3.7427,3.7427,3.7428,3.7428,0,3.9569,3.9425,3.9289,3.9087,3.9034,3.8968,3.8792,3.8713,3.8597,3.8471,3.8432,3.8246,3.8101,3.7942,3.7742,3.7663,3.754,3.7498,3.7597,3.7579,3.7563,3.7566,3.7544,3.7531,3.7473,3.7474,3.7474,0,3.9583,3.9515,3.9307,3.9234,3.9141,3.9024,3.8934,3.8778,3.8688,3.85,3.8443,3.829,3.8159,3.7933,3.7775,3.7621,3.7572,3.7575,3.7547,3.759,3.7567,3.7573,3.7563,3.7582,3.7584,3.7585,3.7586,0,3.9622,3.9554,3.9433,3.9287,3.9185,3.906,3.893,3.8875,3.8691,3.8597,3.845,3.8349,3.8147,3.7994,3.7821,3.7712,3.7616,3.7597,3.7582,3.7622,3.7681,3.7645,3.7616,3.7597,3.7596,3.7595,3.7594,3.7594,3.9672,3.9604,3.9448,3.9316,3.9203,3.9084,3.9001,3.8875,3.8751,3.8579,3.8492,3.8345,3.8181,3.7939,3.7834,3.7712,3.7682,3.7662,3.7657,3.7654,3.7663,3.7704,3.768,3.7679,3.7679,3.7678,3.7678,0,3.9701,3.9594,3.9475,3.93,3.9195,3.9121,3.8972,3.8887,3.8762,3.862,3.8495,3.8324,3.8175,3.8007,3.7846,3.7781,3.7732,3.7743,3.7745,3.772,3.7701,3.7728,3.7785,3.7785,3.7785,3.7785,3.7785,3.7785,3.9704,3.9585,3.9499,3.932,3.921,3.9071,3.8991,3.8879,3.8765,3.8583,3.846,3.8354,3.8199,3.8026,3.7884,3.7837,3.7782,3.7806,3.7747,3.7731,3.7722,3.7714,3.7738,3.7796,3.7796,3.7775,3.7775,3.7775]},{"header":{"parameterUnit":"m.s-1","parameterCategory":1,"la1":30.2991,"la2":30.254,"lo1":-89.0895,"lo2":-89.0444,"dy":0.0017,"dx":0.0017,"nx":28,"ny":28,"refTime":"2025-03-03T09:00:00:Z","depth":0,"parameterNumber":3,"parameterNumberName":"V-component_of_WINDS"},"data":[0,0,0,0,0,0,0,0,0,0,0,0,0,0,0,0,0,0,0,0,0,0,0,0,0,0,0,0,0,0,0,0,0,0,0,0,0,0,0,0,0,0,0,0,0,0,0,0,0,0,0,0,0,0,0,0,0,0,8.2029,8.2037,0,8.2771,8.278,8.2788,8.3044,8.3041,8.3038,8.3035,8.3804,8.3826,8.3849,0,0,0,0,0,0,0,0,0,0,0,0,0,8.0842,8.0862,8.2028,8.2037,8.2047,8.277,8.278,8.279,8.3044,8.3041,8.3037,8.3034,8.3796,8.3824,8.3852,0,0,0,0,0,0,0,0,0,0,0,0,0,8.1448,8.0869,8.2026,8.226,8.2289,8.2768,8.278,8.2793,8.3045,8.304,8.3036,8.3032,8.3787,8.3821,8.3855,8.4158,0,0,8.3962,8.3977,0,0,0,0,0,0,0,0,8.1413,8.1491,8.2217,8.2245,8.2278,8.281,8.2644,8.3251,8.3046,8.2758,8.3035,8.303,8.3477,8.3537,8.3687,8.4195,8.4227,8.3965,8.3986,8.4001,8.4011,0,0,0,0,0,0,0,8.1371,8.1461,8.2323,8.2227,8.2264,8.2332,8.2413,8.276,8.3134,8.2783,8.2803,8.2887,8.3493,8.3652,8.3707,8.4239,8.3964,8.3995,8.4016,8.403,8.5042,8.5047,0,0,0,0,0,0,8.1288,8.1424,8.2299,8.2345,8.1825,8.2357,8.2448,8.2644,8.3131,8.32,8.289,8.2896,8.3595,8.3666,8.3735,8.4129,8.4001,8.4033,8.4053,8.5036,8.5043,8.5049,0,0,0,0,0,0,8.1262,8.1364,8.2269,8.189,8.2011,8.2382,8.26,8.2661,8.282,8.3211,8.328,8.2983,8.3594,8.3686,8.4053,8.4158,8.4049,8.4081,8.5029,8.5038,8.5046,8.4913,0,0,0,0,0,0,8.1226,8.1353,8.1469,8.1891,8.203,8.2571,8.2606,8.2678,8.2879,8.2894,8.3317,8.3383,8.3598,8.3999,8.4087,8.4204,8.4108,8.5021,8.5033,8.5043,8.491,8.4916,8.4922,0,0,0,0,0,8.1183,8.1402,8.1473,8.1577,8.2182,8.2576,8.2656,8.2896,8.2885,8.3009,8.3261,8.337,8.413,8.4034,8.4136,8.4265,8.5016,8.5029,8.5042,8.4907,8.4915,8.4922,0,0,0,0,0,0,8.0984,8.1461,8.1546,8.1906,8.2198,8.2618,8.278,8.2896,8.3199,8.3201,8.3488,8.3582,8.3928,8.4133,8.4017,8.4588,8.458,8.4614,8.4442,8.4453,8.4459,8.4405,8.4137,0,0,0,0,0,8.0981,8.1258,8.1661,8.1941,8.2083,8.2405,8.2586,8.2745,8.3061,8.3186,8.3465,8.377,8.4079,8.4276,8.4582,8.4939,8.5039,8.5078,8.5084,8.5087,8.5115,8.5327,8.5352,8.5094,8.5094,8.5093,0,0,8.0981,8.1276,8.1433,8.1909,8.2154,8.2439,8.2508,8.2805,8.3021,8.3233,8.3598,8.3812,8.4172,8.4537,8.4712,8.4718,8.5208,8.5104,8.5103,8.5132,8.5344,8.5368,8.5389,8.5103,8.5101,8.51,0,0,8.1126,8.1373,8.1638,8.1882,8.2252,8.2465,8.2527,8.2932,8.3082,8.3452,8.3619,8.3881,8.4404,8.4656,8.4852,8.5095,8.5211,8.5187,8.5221,8.5424,8.5445,8.5464,8.5559,8.5588,8.5212,8.5212,8.5212,0,8.108,8.1512,8.1759,8.205,8.2257,8.2459,8.2732,8.2958,8.3408,8.3549,8.3549,8.4215,8.447,8.49,8.496,8.5109,8.5196,8.5142,8.5421,8.5443,8.5465,8.5559,8.5592,8.5207,8.5208,8.5208,8.5209,0,8.1441,8.1738,8.1907,8.2337,8.2563,8.2842,8.3136,8.3336,8.3475,8.369,8.4068,8.4381,8.4757,8.4869,8.5009,8.5322,8.5316,8.5363,8.5363,8.5481,8.5574,8.5611,8.52,8.5202,8.5203,8.5205,0,0,8.1484,8.2047,8.2106,8.2306,8.273,8.2968,8.3258,8.3623,8.3793,8.4096,8.4353,8.4792,8.4841,8.5064,8.5234,8.541,8.5593,8.544,8.5453,8.5463,8.5966,8.5932,8.5969,8.5669,8.5676,8.5682,8.5939,0,8.169,8.2216,8.2448,8.2872,8.3154,8.3351,8.3606,8.3896,8.4104,8.4378,8.4609,8.4919,8.4956,8.5093,8.5276,8.5531,8.5699,8.5515,8.5917,8.5928,8.5827,8.6016,8.5981,8.6207,8.5976,8.5982,8.5986,0,8.2001,8.2306,8.2757,8.3152,8.328,8.3503,8.3861,8.4116,8.4452,8.4592,8.484,8.5003,8.5322,8.5293,8.5741,8.5611,8.5789,8.5939,8.5954,8.6006,8.5968,8.6081,8.6284,8.632,8.6045,8.604,8.6036,0,8.1996,8.2519,8.2859,8.3023,8.349,8.3645,8.3847,8.4178,8.4384,8.4696,8.4835,8.5179,8.537,8.5635,8.5889,8.5844,8.6315,8.6306,8.6446,8.644,8.6542,8.6533,8.6784,8.6643,8.6642,8.6642,8.6641,0,8.2206,8.2476,8.2864,8.3073,8.3384,8.3649,8.395,8.4167,8.446,8.4719,8.4909,8.5149,8.5465,8.5747,8.5947,8.6292,8.6374,8.6501,8.6553,8.6489,8.6473,8.6614,8.6608,8.6651,8.6649,8.6647,8.6645,0,8.2256,8.2525,8.291,8.332,8.343,8.3642,8.3996,8.421,8.4426,8.4753,8.4845,8.5187,8.5529,8.5806,8.6253,8.6388,8.6751,8.6806,8.6638,8.6666,8.6793,8.678,8.7149,8.7214,8.702,8.7022,8.7023,0,8.2375,8.2588,8.3022,8.3208,8.3408,8.3704,8.3917,8.4186,8.44,8.48,8.4967,8.5321,8.562,8.6158,8.645,8.6794,8.6864,8.6969,8.6917,8.6848,8.6875,8.6862,8.6889,8.6976,8.6976,8.6977,8.6977,0,8.2561,8.2685,8.2981,8.3327,8.3574,8.3859,8.4149,8.4292,8.4616,8.4847,8.5198,8.5429,8.5886,8.6239,8.6615,8.6829,8.6961,8.699,8.7043,8.6984,8.6881,8.6946,8.666,8.6983,8.6982,8.6982,8.6981,8.6981,8.2656,8.2857,8.3195,8.3521,8.3767,8.4035,8.4257,8.4502,8.4799,8.5191,8.5332,8.5694,8.603,8.6548,8.6764,8.7055,8.7068,8.7141,8.7161,8.7177,8.7173,8.6827,8.7123,8.7123,8.7123,8.7124,8.7124,0,8.2859,8.3086,8.3383,8.3783,8.4041,8.4137,8.4464,8.4675,8.4991,8.5291,8.5581,8.5987,8.6331,8.6649,8.701,8.7182,8.7252,8.7268,8.7262,8.7311,8.7137,8.7059,8.7206,8.7206,8.7206,8.7206,8.7206,8.7205,8.2995,8.3342,8.3506,8.3979,8.4207,8.4561,8.4741,8.4991,8.5233,8.5677,8.5963,8.6167,8.6478,8.6863,8.7184,8.727,8.7397,8.7399,8.7501,8.7334,8.7322,8.7311,8.724,8.7422,8.7423,8.7653,8.7655,8.7656]}]]